Location: Dumpton Point
(51.3500°N, 1.4433°E)
Time: 09:14:22
(UTC+00:00)

Envisat - Pass Details

Date: 13 December 2021
Orbit: 764 x 766 km, 98.2° (Epoch: 25 January)

Event Time Altitude Azimuth Distance (km) Brightness Sun altitude
Rises 04:54:49 0° 15° (NNE) 3,247 6.4 -26.1°
Reaches altitude 10° 04:57:09 10° 18° (NNE) 2,316 5.6 -25.8°
Maximum altitude 05:02:15 71° 103° (ESE) 812 3.2 -25.0°
Drops below altitude 10° 05:07:18 10° 187° (S) 2,297 5.5 -24.2°
Sets 05:09:37 0° 190° (S) 3,219 6.2 -23.8°
